Time,TemperatureF,DewpointF,PressureIn,WindDirection,WindDirectionDegrees,WindSpeedMPH,WindSpeedGustMPH,Humidity,HourlyPrecipIn,Conditions,Clouds,dailyrainin,SoftwareType,DateUTC
2013-05-21 00:12:00,61.0,53.0,-100.00,SE,140,2.0,4.0,75,0.00,,,-99.99,,2013-05-21 05:12:00,
2013-05-21 00:22:00,61.0,53.0,-100.00,SE,140,2.0,4.0,75,0.00,,,-99.99,,2013-05-21 05:22:00,
2013-05-21 00:32:00,61.0,53.0,-100.00,SE,140,2.0,4.0,75,0.00,,,-99.99,,2013-05-21 05:32:00,
2013-05-21 00:42:00,61.0,53.0,-100.00,SE,140,2.0,4.0,75,0.00,,,-99.99,,2013-05-21 05:42:00,
2013-05-21 03:42:00,63.0,57.0,-100.00,SSW,210,1.0,7.0,82,0.00,,,-99.99,,2013-05-21 08:42:00,
2013-05-21 04:01:00,63.0,57.0,-100.00,SSW,210,1.0,7.0,82,0.00,,,-99.99,,2013-05-21 09:01:00,
2013-05-21 04:11:00,63.0,57.0,-100.00,SSW,210,1.0,7.0,82,0.00,,,-99.99,,2013-05-21 09:11:00,
2013-05-21 04:21:00,63.0,57.0,-100.00,SSW,210,1.0,7.0,82,0.00,,,-99.99,,2013-05-21 09:21:00,
2013-05-21 04:32:00,63.0,57.0,-100.00,SSW,210,1.0,7.0,82,0.00,,,-99.99,,2013-05-21 09:32:00,
2013-05-21 06:02:00,60.0,54.0,-100.00,SW,230,1.0,4.0,81,0.00,,,-99.99,,2013-05-21 11:02:00,
2013-05-21 06:12:00,60.0,54.0,-100.00,SE,125,1.0,3.0,81,0.00,,,-99.99,,2013-05-21 11:12:00,
2013-05-21 06:21:00,60.0,54.0,-100.00,SE,125,1.0,3.0,81,0.00,,,-99.99,,2013-05-21 11:21:00,
2013-05-21 06:32:00,60.0,54.0,-100.00,SE,125,1.0,3.0,81,0.00,,,-99.99,,2013-05-21 11:32:00,
2013-05-21 06:41:00,60.0,54.0,-100.00,SE,125,1.0,3.0,81,0.00,,,-99.99,,2013-05-21 11:41:00,
2013-05-21 07:11:00,61.0,55.0,-100.00,SW,230,0.0,2.0,81,0.00,,,-99.99,,2013-05-21 12:11:00,
2013-05-21 07:21:00,61.0,55.0,-100.00,SW,230,0.0,2.0,81,0.00,,,-99.99,,2013-05-21 12:21:00,
2013-05-21 07:32:00,61.0,55.0,-100.00,SW,230,0.0,2.0,81,0.00,,,-99.99,,2013-05-21 12:32:00,
2013-05-21 07:42:00,61.0,55.0,-100.00,SW,230,0.0,2.0,81,0.00,,,-99.99,,2013-05-21 12:42:00,
2013-05-21 08:12:00,63.0,52.0,-100.00,South,190,1.0,3.0,69,0.00,,,-99.99,,2013-05-21 13:12:00,
2013-05-21 08:22:00,63.0,52.0,-100.00,South,190,1.0,3.0,69,0.00,,,-99.99,,2013-05-21 13:22:00,
2013-05-21 08:32:00,63.0,52.0,-100.00,South,190,1.0,3.0,69,0.00,,,-99.99,,2013-05-21 13:32:00,
2013-05-21 08:41:00,63.0,52.0,-100.00,South,190,1.0,3.0,69,0.00,,,-99.99,,2013-05-21 13:41:00,
2013-05-21 11:03:00,68.0,50.0,-100.00,SE,145,1.0,7.0,52,0.00,,,-99.99,,2013-05-21 16:03:00,
2013-05-21 11:13:00,68.0,50.0,-100.00,SE,145,1.0,7.0,52,0.00,,,-99.99,,2013-05-21 16:13:00,
2013-05-21 11:23:00,68.0,50.0,-100.00,SE,145,1.0,7.0,52,0.00,,,-99.99,,2013-05-21 16:23:00,
2013-05-21 11:32:00,68.0,50.0,-100.00,SE,145,1.0,7.0,52,0.00,,,-99.99,,2013-05-21 16:32:00,
2013-05-21 11:42:00,68.0,50.0,-100.00,SE,145,1.0,7.0,52,0.00,,,-99.99,,2013-05-21 16:42:00,
2013-05-21 12:02:00,67.0,51.0,-100.00,West,260,2.0,6.0,56,0.00,,,-99.99,,2013-05-21 17:02:00,
2013-05-21 12:12:00,67.0,53.0,-100.00,WSW,245,3.0,9.0,60,0.00,,,-99.99,,2013-05-21 17:12:00,
2013-05-21 12:23:00,67.0,53.0,-100.00,WSW,245,3.0,9.0,60,0.00,,,-99.99,,2013-05-21 17:23:00,
2013-05-21 12:32:00,67.0,53.0,-100.00,WSW,245,3.0,9.0,60,0.00,,,-99.99,,2013-05-21 17:32:00,
2013-05-21 12:43:00,67.0,53.0,-100.00,WSW,245,3.0,9.0,60,0.00,,,-99.99,,2013-05-21 17:43:00,
2013-05-21 13:02:00,70.0,58.0,-100.00,ESE,105,1.0,7.0,65,0.00,,,-99.99,,2013-05-21 18:02:00,
2013-05-21 13:12:00,70.0,58.0,-100.00,ESE,105,1.0,7.0,65,0.00,,,-99.99,,2013-05-21 18:12:00,
2013-05-21 13:22:00,70.0,58.0,-100.00,ESE,105,1.0,7.0,65,0.00,,,-99.99,,2013-05-21 18:22:00,
2013-05-21 13:32:00,70.0,58.0,-100.00,ESE,105,1.0,7.0,65,0.00,,,-99.99,,2013-05-21 18:32:00,
2013-05-21 13:42:00,70.0,58.0,-100.00,ESE,105,1.0,7.0,65,0.00,,,-99.99,,2013-05-21 18:42:00,
2013-05-21 14:11:00,69.0,50.0,-100.00,NW,305,2.0,8.0,51,0.00,,,-99.99,,2013-05-21 19:11:00,
2013-05-21 14:21:00,69.0,50.0,-100.00,NW,305,2.0,8.0,51,0.00,,,-99.99,,2013-05-21 19:21:00,
2013-05-21 14:32:00,69.0,50.0,-100.00,NW,305,2.0,8.0,51,0.00,,,-99.99,,2013-05-21 19:32:00,
2013-05-21 14:42:00,69.0,50.0,-100.00,NW,305,2.0,8.0,51,0.00,,,-99.99,,2013-05-21 19:42:00,
2013-05-21 15:11:00,71.0,54.0,-100.00,West,280,1.0,4.0,56,0.00,,,-99.99,,2013-05-21 20:11:00,
2013-05-21 15:22:00,71.0,54.0,-100.00,West,280,1.0,4.0,56,0.00,,,-99.99,,2013-05-21 20:22:00,
2013-05-21 15:32:00,71.0,54.0,-100.00,West,280,1.0,4.0,56,0.00,,,-99.99,,2013-05-21 20:32:00,
2013-05-21 15:42:00,71.0,54.0,-100.00,West,280,1.0,4.0,56,0.00,,,-99.99,,2013-05-21 20:42:00,
2013-05-21 16:02:00,74.0,45.0,-100.00,WSW,245,1.0,14.0,36,0.00,,,-99.99,,2013-05-21 21:02:00,
2013-05-21 16:11:00,74.0,45.0,-100.00,WSW,245,1.0,14.0,36,0.00,,,-99.99,,2013-05-21 21:11:00,
2013-05-21 16:21:00,74.0,45.0,-100.00,WSW,245,1.0,14.0,36,0.00,,,-99.99,,2013-05-21 21:21:00,
2013-05-21 16:33:00,74.0,45.0,-100.00,WSW,245,1.0,14.0,36,0.00,,,-99.99,,2013-05-21 21:33:00,
2013-05-21 16:43:00,74.0,45.0,-100.00,WSW,245,1.0,14.0,36,0.00,,,-99.99,,2013-05-21 21:43:00,
2013-05-21 17:02:00,73.0,45.0,-100.00,SW,220,2.0,9.0,38,0.00,,,-99.99,,2013-05-21 22:02:00,
2013-05-21 17:12:00,73.0,45.0,-100.00,SW,220,2.0,9.0,38,0.00,,,-99.99,,2013-05-21 22:12:00,
2013-05-21 17:22:00,73.0,45.0,-100.00,SW,220,2.0,9.0,38,0.00,,,-99.99,,2013-05-21 22:22:00,
2013-05-21 17:33:00,73.0,45.0,-100.00,SW,220,2.0,9.0,38,0.00,,,-99.99,,2013-05-21 22:33:00,
2013-05-21 17:42:00,73.0,45.0,-100.00,SW,220,2.0,9.0,38,0.00,,,-99.99,,2013-05-21 22:42:00,
2013-05-21 21:11:00,64.0,49.0,-100.00,West,275,2.0,7.0,58,0.00,,,-99.99,,2013-05-22 02:11:00,
2013-05-21 21:21:00,64.0,49.0,-100.00,West,275,2.0,7.0,58,0.00,,,-99.99,,2013-05-22 02:21:00,
2013-05-21 21:32:00,64.0,49.0,-100.00,West,275,2.0,7.0,58,0.00,,,-99.99,,2013-05-22 02:32:00,
2013-05-21 21:42:00,64.0,49.0,-100.00,West,275,2.0,7.0,58,0.00,,,-99.99,,2013-05-22 02:42:00,